Location: Goodfare
(55.2420°N, 119.7689°W)
Time: 23:59:29
(UTC+00:00)

ISS - Pass Details

Date: 04 December 2021
Orbit: 413 x 422 km, 51.6° (Epoch: 25 January)

Event Time Altitude Azimuth Distance (km) Brightness Sun altitude
Rises 01:16:58 0° 272° (W) 2,389 1.5 -13.7°
Reaches altitude 10° 01:19:11 10° 263° (W) 1,520 0.4 -14.0°
Maximum altitude 01:22:18 33° 197° (SSW) 733 -2.2 -14.4°
Enters shadow 01:25:09 12° 133° (SE) 1,419 -1.4 -14.8°
